Zurück zum Katalog

QIANFAN-30

AktivKommunikationPO
NORAD 61563·PAYLOAD·🇨🇳 China

Gestartet Oct 15, 2024 von Taiyuan Satellite Launch Center

Loading…

Nächste Überflüge (nächste 24 Stunden)

TLE

AktuellSource: Space-Track

Epoche: Sep 14, 2026, 13:46 UTC

1 61563U 24185M   26257.57411627  .00000124  00000-0  17628-3 0  9990
2 61563  88.9815  52.4287 0006471 331.1129  28.9663 13.50074803105289

Verfolge QIANFAN-30 in Echtzeit mit AllMySat

Download on the App Store